Tracking 27428 objects as of 31-May-2023
HD Live streaming from Space Station
objects crossing your sky now

STARLINK-3923

Track STARLINK-3923 now!
10-day predictions
STARLINK-3923 is classified as:


NORAD ID: 52489
Int'l Code: 2022-049AQ
Perigee: 546.1 km
Apogee: 547.6 km
Inclination: 53.2 °
Period: 95.4 minutes
Semi major axis: 6917 km
RCS: Unknown
Launch date: May 6, 2022
Source: United States (US)
Launch site: AIR FORCE EASTERN TEST RANGE (AFETR)
Your satellite tracking list
Your tracking list is empty




NASA's NSSDC Master Catalog

Two Line Element Set (TLE):
1 52489U 22049AQ  23151.34646978  .00001027  00000-0  82627-4 0  9993
2 52489  53.2189 288.1995 0001066 101.6447 258.4665 15.08839088 59433
Source of the keplerian elements: AFSPC